1967,1,1,6,853
1967,1,1,7,1006
1967,1,1,8,1311
1967,1,1,9,1798
1967,1,1,10,2316
1967,1,1,11,2743
1967,1,1,12,2987
1967,1,1,13,3018
1967,1,1,14,2621
1967,1,1,15,2042
1967,1,1,16,1463
1967,1,1,17,945
1967,1,1,18,701
1967,1,1,19,640
1967,1,1,20,945
1967,1,1,21,1402
1967,1,1,22,1920
1967,1,1,23,2408
1967,1,2,0,2804
1967,1,2,1,2957
1967,1,2,2,2804
1967,1,2,3,2347
1967,1,2,4,1859
1967,1,2,5,1341
1967,1,2,6,975
1967,1,2,7,853
1967,1,2,8,975
1967,1,2,9,1341
1967,1,2,10,1829
1967,1,2,11,2286
1967,1,2,12,2682
1967,1,2,13,2896
1967,1,2,14,2835
1967,1,2,15,2438
1967,1,2,16,1951
1967,1,2,17,1402
1967,1,2,18,945
1967,1,2,19,762
1967,1,2,20,853
1967,1,2,21,1097
1967,1,2,22,1554
1967,1,2,23,2103
1967,1,3,0,2560
1967,1,3,1,2865
1967,1,3,2,2987
1967,1,3,3,2804
1967,1,3,4,2347
1967,1,3,5,1890
1967,1,3,6,1372
1967,1,3,7,1036
1967,1,3,8,914
1967,1,3,9,1097
1967,1,3,10,1433
1967,1,3,11,1829
1967,1,3,12,2316
1967,1,3,13,2652
1967,1,3,14,2804
1967,1,3,15,2652
1967,1,3,16,2316
1967,1,3,17,1859
1967,1,3,18,1372
1967,1,3,19,975
1967,1,3,20,823
1967,1,3,21,1006
1967,1,3,22,1341
1967,1,3,23,1798
1967,1,4,0,2286
1967,1,4,1,2713
1967,1,4,2,2957
1967,1,4,3,2957
1967,1,4,4,2621
1967,1,4,5,2225
1967,1,4,6,1707
1967,1,4,7,1280
1967,1,4,8,1036
1967,1,4,9,1006
1967,1,4,10,1189
1967,1,4,11,1554
1967,1,4,12,1951
1967,1,4,13,2377
1967,1,4,14,2621
1967,1,4,15,2682
1967,1,4,16,2499
1967,1,4,17,2134
1967,1,4,18,1707
1967,1,4,19,1250
1967,1,4,20,1006
1967,1,4,21,975
1967,1,4,22,1128
1967,1,4,23,1463
1967,1,5,0,1890
1967,1,5,1,2347
1967,1,5,2,2713
1967,1,5,3,2926
1967,1,5,4,2896
1967,1,5,5,2621
1967,1,5,6,2164
1967,1,5,7,1707
1967,1,5,8,1280
1967,1,5,9,1036
1967,1,5,10,1036
1967,1,5,11,1189
1967,1,5,12,1524
1967,1,5,13,1920
1967,1,5,14,2286
1967,1,5,15,2530
1967,1,5,16,2591
1967,1,5,17,2438
1967,1,5,18,2073
1967,1,5,19,1676
1967,1,5,20,1341
1967,1,5,21,1036
1967,1,5,22,1006
1967,1,5,23,1158
1967,1,6,0,1463
1967,1,6,1,1890
1967,1,6,2,2316
1967,1,6,3,2682
1967,1,6,4,2865
1967,1,6,5,2835
1967,1,6,6,2560
1967,1,6,7,2134
1967,1,6,8,1676
1967,1,6,9,1280
1967,1,6,10,1036
1967,1,6,11,1006
1967,1,6,12,1189
1967,1,6,13,1463
1967,1,6,14,1829
1967,1,6,15,2195
1967,1,6,16,2438
1967,1,6,17,2499
1967,1,6,18,2377
1967,1,6,19,2042
1967,1,6,20,1707
1967,1,6,21,1372
1967,1,6,22,1128
1967,1,6,23,1067
1967,1,7,0,1189
1967,1,7,1,1524
1967,1,7,2,1920
1967,1,7,3,2316
1967,1,7,4,2682
1967,1,7,5,2896
1967,1,7,6,2835
1967,1,7,7,2591
1967,1,7,8,2164
1967,1,7,9,1737
1967,1,7,10,1311
1967,1,7,11,1067
1967,1,7,12,1036
1967,1,7,13,1189
1967,1,7,14,1433
1967,1,7,15,1829
1967,1,7,16,2195
1967,1,7,17,2438
1967,1,7,18,2560
1967,1,7,19,2469
1967,1,7,20,2164
1967,1,7,21,1829
1967,1,7,22,1433
1967,1,7,23,1189
1967,1,8,0,1158
1967,1,8,1,1250
1967,1,8,2,1524
1967,1,8,3,1951
1967,1,8,4,2347
1967,1,8,5,2743
1967,1,8,6,2896
1967,1,8,7,2865
1967,1,8,8,2591
1967,1,8,9,2225
1967,1,8,10,1737
1967,1,8,11,1311
1967,1,8,12,1067
1967,1,8,13,1006
1967,1,8,14,1128
1967,1,8,15,1402
1967,1,8,16,1798
1967,1,8,17,2195
1967,1,8,18,2499
1967,1,8,19,2591
1967,1,8,20,2530
1967,1,8,21,2247
1967,1,8,22,1859
1967,1,8,23,1494
1967,1,9,0,1189
1967,1,9,1,1128
1967,1,9,2,1250
1967,1,9,3,1524
1967,1,9,4,1920
1967,1,9,5,2347
1967,1,9,6,2713
1967,1,9,7,2926
1967,1,9,8,2896
1967,1,9,9,2621
1967,1,9,10,2195
1967,1,9,11,1676
1967,1,9,12,1250
1967,1,9,13,1006
1967,1,9,14,914
1967,1,9,15,1067
1967,1,9,16,1402
1967,1,9,17,1798
1967,1,9,18,2225
1967,1,9,19,2530
1967,1,9,20,2682
1967,1,9,21,2560
1967,1,9,22,2225
1967,1,9,23,1829
1967,1,10,0,1433
1967,1,10,1,1128
1967,1,10,2,1097
1967,1,10,3,1219
1967,1,10,4,1524
1967,1,10,5,1951
1967,1,10,6,2408
1967,1,10,7,2743
1967,1,10,8,2957
1967,1,10,9,2865
1967,1,10,10,2560
1967,1,10,11,2134
1967,1,10,12,1585
1967,1,10,13,1158
1967,1,10,14,914
1967,1,10,15,884
1967,1,10,16,1067
1967,1,10,17,1433
1967,1,10,18,1890
1967,1,10,19,2316
1967,1,10,20,2621
1967,1,10,21,2713
1967,1,10,22,2591
1967,1,10,23,2210
1967,1,11,0,1737
1967,1,11,1,1311
1967,1,11,2,1067
1967,1,11,3,1006
1967,1,11,4,1189
1967,1,11,5,1524
1967,1,11,6,1981
1967,1,11,7,2408
1967,1,11,8,2774
1967,1,11,9,2926
1967,1,11,10,2835
1967,1,11,11,2469
1967,1,11,12,1981
1967,1,11,13,1463
1967,1,11,14,1006
1967,1,11,15,823
1967,1,11,16,823
1967,1,11,17,1067
1967,1,11,18,1524
1967,1,11,19,2012
1967,1,11,20,2408
1967,1,11,21,2713
1967,1,11,22,2804
1967,1,11,23,2560
1967,1,12,0,2164
1967,1,12,1,1676
1967,1,12,2,1219
1967,1,12,3,1036
1967,1,12,4,1006
1967,1,12,5,1219
1967,1,12,6,1646
1967,1,12,7,2073
1967,1,12,8,2530
1967,1,12,9,2835
1967,1,12,10,2957
1967,1,12,11,2743
1967,1,12,12,2347
1967,1,12,13,1829
1967,1,12,14,1280
1967,1,12,15,914
1967,1,12,16,792
1967,1,12,17,823
1967,1,12,18,1219
1967,1,12,19,1646
1967,1,12,20,2134
1967,1,12,21,2530
1967,1,12,22,2774
1967,1,12,23,2774
1967,1,13,0,2438
1967,1,13,1,2012
1967,1,13,2,1554
1967,1,13,3,1158
1967,1,13,4,1006
1967,1,13,5,1067
1967,1,13,6,1311
1967,1,13,7,1737
1967,1,13,8,2195
1967,1,13,9,2621
1967,1,13,10,2896
1967,1,13,11,2896
1967,1,13,12,2652
1967,1,13,13,2195
1967,1,13,14,1615
1967,1,13,15,1128
1967,1,13,16,853
1967,1,13,17,823
1967,1,13,18,1006
1967,1,13,19,1372
1967,1,13,20,1829
1967,1,13,21,2316
1967,1,13,22,2652
1967,1,13,23,2835
1967,1,14,0,2713
1967,1,14,1,2347
1967,1,14,2,1920
1967,1,14,3,1463
1967,1,14,4,1128
1967,1,14,5,1036
1967,1,14,6,1158
1967,1,14,7,1433
1967,1,14,8,1890
1967,1,14,9,2336
1967,1,14,10,2713
1967,1,14,11,2896
1967,1,14,12,2804
1967,1,14,13,2469
1967,1,14,14,1981
1967,1,14,15,1463
1967,1,14,16,1036
1967,1,14,17,823
1967,1,14,18,914
1967,1,14,19,1158
1967,1,14,20,1585
1967,1,14,21,2042
1967,1,14,22,2469
1967,1,14,23,2774
1967,1,15,0,2865
1967,1,15,1,2621
1967,1,15,2,2225
1967,1,15,3,1803
1967,1,15,4,1402
1967,1,15,5,1158
1967,1,15,6,1097
1967,1,15,7,1280
1967,1,15,8,1646
1967,1,15,9,2073
1967,1,15,10,2469
1967,1,15,11,2743
1967,1,15,12,2865
1967,1,15,13,2713
1967,1,15,14,2286
1967,1,15,15,1829
1967,1,15,16,1341
1967,1,15,17,1006
1967,1,15,18,914
1967,1,15,19,1036
1967,1,15,20,1311
1967,1,15,21,1768
1967,1,15,22,2225
1967,1,15,23,2560
1967,1,16,0,2804
1967,1,16,1,2774
1967,1,16,2,2469
1967,1,16,3,2103
1967,1,16,4,1676
1967,1,16,5,1311
1967,1,16,6,1128
1967,1,16,7,1158
1967,1,16,8,1341
1967,1,16,9,1707
1967,1,16,10,2134
1967,1,16,11,2499
1967,1,16,12,2682
1967,1,16,13,2682
1967,1,16,14,2469
1967,1,16,15,2073
1967,1,16,16,1615
1967,1,16,17,1219
1967,1,16,18,1036
1967,1,16,19,1006
1967,1,16,20,1219
1967,1,16,21,1524
1967,1,16,22,1951
1967,1,16,23,2347
1967,1,17,0,2621
1967,1,17,1,2774
1967,1,17,2,2652
1967,1,17,3,2316
1967,1,17,4,1951
1967,1,17,5,1585
1967,1,17,6,1250
1967,1,17,7,1128
1967,1,17,8,1250
1967,1,17,9,1494
1967,1,17,10,1829
1967,1,17,11,2195
1967,1,17,12,2499
1967,1,17,13,2621
1967,1,17,14,2560
1967,1,17,15,2286
1967,1,17,16,1890
1967,1,17,17,1494
1967,1,17,18,1219
1967,1,17,19,1097
1967,1,17,20,1189
1967,1,17,21,1372
1967,1,17,22,1707
1967,1,17,23,2103
1967,1,18,0,2438
1967,1,18,1,2682
1967,1,18,2,2774
1967,1,18,3,2560
1967,1,18,4,2225
1967,1,18,5,1890
1967,1,18,6,1524
1967,1,18,7,1280
1967,1,18,8,1219
1967,1,18,9,1372
1967,1,18,10,1585
1967,1,18,11,1951
1967,1,18,12,2256
1967,1,18,13,2469
1967,1,18,14,2530
1967,1,18,15,2408
1967,1,18,16,2134
1967,1,18,17,1768
1967,1,18,18,1463
1967,1,18,19,1219
1967,1,18,20,1189
1967,1,18,21,1280
1967,1,18,22,1494
1967,1,18,23,1859
1967,1,19,0,2195
1967,1,19,1,2469
1967,1,19,2,2682
1967,1,19,3,2652
1967,1,19,4,2438
1967,1,19,5,2134
1967,1,19,6,1798
1967,1,19,7,1463
1967,1,19,8,1280
1967,1,19,9,1280
1967,1,19,10,1372
1967,1,19,11,1646
1967,1,19,12,1951
1967,1,19,13,2195
1967,1,19,14,2347
1967,1,19,15,2408
1967,1,19,16,2225
1967,1,19,17,1951
1967,1,19,18,1707
1967,1,19,19,1402
1967,1,19,20,1280
1967,1,19,21,1250
1967,1,19,22,1341
1967,1,19,23,1615
1967,1,20,0,1920
1967,1,20,1,2256
1967,1,20,2,2499
1967,1,20,3,2621
1967,1,20,4,2560
1967,1,20,5,2408
1967,1,20,6,2042
1967,1,20,7,1737
1967,1,20,8,1463
1967,1,20,9,1311
1967,1,20,10,1311
1967,1,20,11,1433
1967,1,20,12,1676
1967,1,20,13,1951
1967,1,20,14,2134
1967,1,20,15,2316
1967,1,20,16,2347
1967,1,20,17,2195
1967,1,20,18,1951
1967,1,20,19,1707
1967,1,20,20,1433
1967,1,20,21,1372
1967,1,20,22,1311
1967,1,20,23,1463
1967,1,21,0,1737
1967,1,21,1,1981
1967,1,21,2,2316
1967,1,21,3,2499
1967,1,21,4,2591
1967,1,21,5,2560
1967,1,21,6,2316
1967,1,21,7,2012
1967,1,21,8,1676
1967,1,21,9,1433
1967,1,21,10,1250
1967,1,21,11,1280
1967,1,21,12,1433
1967,1,21,13,1646
1967,1,21,14,1890
1967,1,21,15,2073
1967,1,21,16,2256
1967,1,21,17,2225
1967,1,21,18,2103
1967,1,21,19,1920
1967,1,21,20,1707
1967,1,21,21,1402
1967,1,21,22,1311
1967,1,21,23,1311
1967,1,22,0,1463
1967,1,22,1,1676
1967,1,22,2,1981
1967,1,22,3,2256
1967,1,22,4,2499
1967,1,22,5,2591
1967,1,22,6,2499
1967,1,22,7,2286
1967,1,22,8,1951
1967,1,22,9,1676
1967,1,22,10,1341
1967,1,22,11,1219
1967,1,22,12,1250
1967,1,22,13,1372
1967,1,22,14,1585
1967,1,22,15,1859
1967,1,22,16,2073
1967,1,22,17,2225
1967,1,22,18,2256
1967,1,22,19,2134
1967,1,22,20,1920
1967,1,22,21,1676
1967,1,22,22,1433
1967,1,22,23,1311
1967,1,23,0,1311
1967,1,23,1,1433
1967,1,23,2,1737
1967,1,23,3,2012
1967,1,23,4,2316
1967,1,23,5,2560
1967,1,23,6,2652
1967,1,23,7,2530
1967,1,23,8,2256
1967,1,23,9,1920
1967,1,23,10,1554
1967,1,23,11,1280
1967,1,23,12,1128
1967,1,23,13,1158
1967,1,23,14,1280
1967,1,23,15,1554
1967,1,23,16,1829
1967,1,23,17,2134
1967,1,23,18,2316
1967,1,23,19,2286
1967,1,23,20,2195
1967,1,23,21,1951
1967,1,23,22,1676
1967,1,23,23,1372
1967,1,24,0,1219
1967,1,24,1,1280
1967,1,24,2,1372
1967,1,24,3,1676
1967,1,24,4,2073
1967,1,24,5,2377
1967,1,24,6,2621
1967,1,24,7,2713
1967,1,24,8,2560
1967,1,24,9,2286
1967,1,24,10,1920
1967,1,24,11,1494
1967,1,24,12,1189
1967,1,24,13,1036
1967,1,24,14,1067
1967,1,24,15,1250
1967,1,24,16,1524
1967,1,24,17,1920
1967,1,24,18,2225
1967,1,24,19,2408
1967,1,24,20,2438
1967,1,24,21,2256
1967,1,24,22,1920
1967,1,24,23,1585
1967,1,25,0,1280
1967,1,25,1,1128
1967,1,25,2,1158
1967,1,25,3,1341
1967,1,25,4,1646
1967,1,25,5,2103
1967,1,25,6,2469
1967,1,25,7,2743
1967,1,25,8,2804
1967,1,25,9,2652
1967,1,25,10,2286
1967,1,25,11,1829
1967,1,25,12,1372
1967,1,25,13,1036
1967,1,25,14,884
1967,1,25,15,914
1967,1,25,16,1189
1967,1,25,17,1585
1967,1,25,18,1981
1967,1,25,19,2347
1967,1,25,20,2560
1967,1,25,21,2560
1967,1,25,22,2316
1967,1,25,23,1920
1967,1,26,0,1494
1967,1,26,1,1189
1967,1,26,2,1006
1967,1,26,3,1006
1967,1,26,4,1280
1967,1,26,5,1676
1967,1,26,6,2164
1967,1,26,7,2560
1967,1,26,8,2835
1967,1,26,9,2926
1967,1,26,10,2743
1967,1,26,11,2256
1967,1,26,12,1737
1967,1,26,13,1217
1967,1,26,14,853
1967,1,26,15,732
1967,1,26,16,853
1967,1,26,17,1158
1967,1,26,18,1676
1967,1,26,19,2134
1967,1,26,20,2530
1967,1,26,21,2743
1967,1,26,22,2682
1967,1,26,23,2347
1967,1,27,0,1890
1967,1,27,1,1372
1967,1,27,2,1036
1967,1,27,3,853
1967,1,27,4,945
1967,1,27,5,1280
1967,1,27,6,1707
1967,1,27,7,2256
1967,1,27,8,2713
1967,1,27,9,2987
1967,1,27,10,3048
1967,1,27,11,2743
1967,1,27,12,2256
1967,1,27,13,1646
1967,1,27,14,1067
1967,1,27,15,732
1967,1,27,16,669
1967,1,27,17,870
1967,1,27,18,1280
1967,1,27,19,1798
1967,1,27,20,2316
1967,1,27,21,2743
1967,1,27,22,2926
1967,1,27,23,2804
1967,1,28,0,2408
1967,1,28,1,1859
1967,1,28,2,1280
1967,1,28,3,905
1967,1,28,4,787
1967,1,28,5,945
1967,1,28,6,1280
1967,1,28,7,1829
1967,1,28,8,2377
1967,1,28,9,2835
1967,1,28,10,3109
1967,1,28,11,3078
1967,1,28,12,2682
1967,1,28,13,2134
1967,1,28,14,1494
1967,1,28,15,853
1967,1,28,16,610
1967,1,28,17,579
1967,1,28,18,853
1967,1,28,19,1372
1967,1,28,20,1951
1967,1,28,21,2499
1967,1,28,22,2896
1967,1,28,23,3048
1967,1,29,0,2865
1967,1,29,1,2377
1967,1,29,2,1829
1967,1,29,3,1219
1967,1,29,4,823
1967,1,29,5,762
1967,1,29,6,884
1967,1,29,7,1341
1967,1,29,8,1890
1967,1,29,9,2408
1967,1,29,10,2865
1967,1,29,11,3109
1967,1,29,12,2987
1967,1,29,13,2530
1967,1,29,14,1951
1967,1,29,15,1280
1967,1,29,16,732
1967,1,29,17,488
1967,1,29,18,640
1967,1,29,19,1006
1967,1,29,20,1615
1967,1,29,21,2225
1967,1,29,22,2743
1967,1,29,23,3048
1967,1,30,0,3139
1967,1,30,1,2804
1967,1,30,2,2225
1967,1,30,3,1615
1967,1,30,4,1067
1967,1,30,5,732
1967,1,30,6,732
1967,1,30,7,1006
1967,1,30,8,1463
1967,1,30,9,2012
1967,1,30,10,2499
1967,1,30,11,2896
1967,1,30,12,3109
1967,1,30,13,2865
1967,1,30,14,2377
1967,1,30,15,1768
1967,1,30,16,1067
1967,1,30,17,671
1967,1,30,18,579
1967,1,30,19,762
1967,1,30,20,1219
1967,1,30,21,1798
1967,1,30,22,2408
1967,1,30,23,2896
1967,1,31,0,3170
1967,1,31,1,3170
1967,1,31,2,2774
1967,1,31,3,2164
1967,1,31,4,1554
1967,1,31,5,1036
1967,1,31,6,762
1967,1,31,7,762
1967,1,31,8,1097
1967,1,31,9,1554
1967,1,31,10,2073
1967,1,31,11,2591
1967,1,31,12,2926
1967,1,31,13,2987
1967,1,31,14,2682
1967,1,31,15,2195
1967,1,31,16,1585
1967,1,31,17,1006
1967,1,31,18,732
1967,1,31,19,671
1967,1,31,20,914
1967,1,31,21,1433
1967,1,31,22,1981
1967,1,31,23,2530
1967,2,1,0,2987
1967,2,1,1,3170
1967,2,1,2,3078
1967,2,1,3,2621
1967,2,1,4,2073
1967,2,1,5,1524
1967,2,1,6,1006
1967,2,1,7,823
1967,2,1,8,853
1967,2,1,9,1128
1967,2,1,10,1615
1967,2,1,11,2103
1967,2,1,12,2560
1967,2,1,13,2804
1967,2,1,14,2804
1967,2,1,15,2469
1967,2,1,16,2073
1967,2,1,17,1463
1967,2,1,18,1006
1967,2,1,19,823
1967,2,1,20,792
1967,2,1,21,1097
1967,2,1,22,1554
1967,2,1,23,2073
1967,2,2,0,2560
1967,2,2,1,2957
1967,2,2,2,3109
1967,2,2,3,2957
1967,2,2,4,2530
1967,2,2,5,2012
1967,2,2,6,1463
1967,2,2,7,1067
1967,2,2,8,884
1967,2,2,9,945
1967,2,2,10,1219
1967,2,2,11,1646
1967,2,2,12,2103
1967,2,2,13,2469
1967,2,2,14,2682
1967,2,2,15,2652
1967,2,2,16,2377
1967,2,2,17,1920
1967,2,2,18,1463
1967,2,2,19,1097
1967,2,2,20,945
1967,2,2,21,975
1967,2,2,22,1250
1967,2,2,23,1676
1967,2,3,0,2103
1967,2,3,1,2560
1967,2,3,2,2865
1967,2,3,3,2987
1967,2,3,4,2804
1967,2,3,5,2408
1967,2,3,6,1951
1967,2,3,7,1463
1967,2,3,8,1158
1967,2,3,9,975
1967,2,3,10,1067
1967,2,3,11,1311
1967,2,3,12,1676
1967,2,3,13,2073
1967,2,3,14,2377
1967,2,3,15,2560
1967,2,3,16,2560
1967,2,3,17,2256
1967,2,3,18,1951
1967,2,3,19,1585
1967,2,3,20,1219
1967,2,3,21,1097
1967,2,3,22,1158
1967,2,3,23,1341
1967,2,4,0,1676
1967,2,4,1,2103
1967,2,4,2,2499
1967,2,4,3,2743
1967,2,4,4,2835
1967,2,4,5,2682
1967,2,4,6,2347
1967,2,4,7,1951
1967,2,4,8,1524
1967,2,4,9,1158
1967,2,4,10,1067
1967,2,4,11,1097
1967,2,4,12,1280
1967,2,4,13,1585
1967,2,4,14,1951
1967,2,4,15,2316
1967,2,4,16,2438
1967,2,4,17,2408
1967,2,4,18,2225
1967,2,4,19,1920
1967,2,4,20,1554
1967,2,4,21,1311
1967,2,4,22,1128
1967,2,4,23,1158
1967,2,5,0,1341
1967,2,5,1,1615
1967,2,5,2,2042
1967,2,5,3,2377
1967,2,5,4,2621
1967,2,5,5,2774
1967,2,5,6,2621
1967,2,5,7,2316
1967,2,5,8,1951
1967,2,5,9,1524
1967,2,5,10,1250
1967,2,5,11,1067
1967,2,5,12,1097
1967,2,5,13,1280
1967,2,5,14,1554
1967,2,5,15,1890
1967,2,5,16,2195
1967,2,5,17,2377
1967,2,5,18,2438
1967,2,5,19,2256
1967,2,5,20,1981
1967,2,5,21,1676
1967,2,5,22,1402
1967,2,5,23,1219
1967,2,6,0,1219
1967,2,6,1,1372
1967,2,6,2,1646
1967,2,6,3,2012
1967,2,6,4,2347
1967,2,6,5,2621
1967,2,6,6,2713
1967,2,6,7,2621
1967,2,6,8,2377
1967,2,6,9,1981
1967,2,6,10,1585
1967,2,6,11,1250
1967,2,6,12,1097
1967,2,6,13,1067
1967,2,6,14,1219
1967,2,6,15,1494
1967,2,6,16,1859
1967,2,6,17,2164
1967,2,6,18,2408
1967,2,6,19,2469
1967,2,6,20,2286
1967,2,6,21,2042
1967,2,6,22,1707
1967,2,6,23,1372
1967,2,7,0,1189
1967,2,7,1,1189
1967,2,7,2,1311
1967,2,7,3,1585
1967,2,7,4,1951
1967,2,7,5,2316
1967,2,7,6,2560
1967,2,7,7,2713
1967,2,7,8,2621
1967,2,7,9,2347
1967,2,7,10,1951
1967,2,7,11,1524
1967,2,7,12,1189
1967,2,7,13,1006
1967,2,7,14,975
1967,2,7,15,1158
1967,2,7,16,1465
1967,2,7,17,1829
1967,2,7,18,2195
1967,2,7,19,2438
1967,2,7,20,2499
1967,2,7,21,2377
1967,2,7,22,2042
1967,2,7,23,1707
1967,2,8,0,1311
1967,2,8,1,1097
1967,2,8,2,1097
1967,2,8,3,1219
1967,2,8,4,1494
1967,2,8,5,1920
1967,2,8,6,2316
1967,2,8,7,2591
1967,2,8,8,2713
1967,2,8,9,2621
1967,2,8,10,2316
1967,2,8,11,1890
1967,2,8,12,1433
1967,2,8,13,1067
1967,2,8,14,884
1967,2,8,15,914
1967,2,8,16,1128
1967,2,8,17,1494
1967,2,8,18,1890
1967,2,8,19,2286
1967,2,8,20,2499
1967,2,8,21,2560
1967,2,8,22,2377
1967,2,8,23,1981
1967,2,9,0,1585
1967,2,9,1,1219
1967,2,9,2,1036
1967,2,9,3,975
1967,2,9,4,1189
1967,2,9,5,1585
1967,2,9,6,1981
1967,2,9,7,2347
1967,2,9,8,2652
1967,2,9,9,2713
1967,2,9,10,2591
1967,2,9,11,2195
1967,2,9,12,1737
1967,2,9,13,1280
1967,2,9,14,914
1967,2,9,15,792
1967,2,9,16,853
1967,2,9,17,1128
1967,2,9,18,1585
1967,2,9,19,2012
1967,2,9,20,2408
1967,2,9,21,2652
1967,2,9,22,2530
1967,2,9,23,2377
1967,2,10,0,1920
1967,2,10,1,1494
1967,2,10,2,1158
1967,2,10,3,975
1967,2,10,4,975
1967,2,10,5,1250
1967,2,10,6,1646
1967,2,10,7,2073
1967,2,10,8,2469
1967,2,10,9,2743
1967,2,10,10,2804
1967,2,10,11,2560
1967,2,10,12,2134
1967,2,10,13,1646
1967,2,10,14,1158
1967,2,10,15,853
1967,2,10,16,823
1967,2,10,17,975
1967,2,10,18,1311
1967,2,10,19,1768
1967,2,10,20,2256
1967,2,10,21,2560
1967,2,10,22,2774
1967,2,10,23,2682
1967,2,11,0,2316
1967,2,11,1,1890
1967,2,11,2,1433
1967,2,11,3,1097
1967,2,11,4,1006
1967,2,11,5,1097
1967,2,11,6,1341
1967,2,11,7,1829
1967,2,11,8,2256
1967,2,11,9,2621
1967,2,11,10,2835
1967,2,11,11,2774
1967,2,11,12,2469
1967,2,11,13,1981
1967,2,11,14,1463
1967,2,11,15,1067
1967,2,11,16,823
1967,2,11,17,823
1967,2,11,18,1128
1967,2,11,19,1554
1967,2,11,20,2012
1967,2,11,21,2438
1967,2,11,22,2713
1967,2,11,23,2804
1967,2,12,0,2591
1967,2,12,1,2195
1967,2,12,2,1737
1967,2,12,3,1280
1967,2,12,4,1006
1967,2,12,5,968
1967,2,12,6,1158
1967,2,12,7,1524
1967,2,12,8,1981
1967,2,12,9,2408
1967,2,12,10,2682
1967,2,12,11,2835
1967,2,12,12,2652
1967,2,12,13,2286
1967,2,12,14,1768
1967,2,12,15,1280
1967,2,12,16,945
1967,2,12,17,853
1967,2,12,18,975
1967,2,12,19,1311
1967,2,12,20,1768
1967,2,12,21,2256
1967,2,12,22,2652
1967,2,12,23,2865
1967,2,13,0,2835
1967,2,13,1,2499
1967,2,13,2,2042
1967,2,13,3,1615
1967,2,13,4,1158
1967,2,13,5,1006
1967,2,13,6,1067
1967,2,13,7,1311
1967,2,13,8,1707
1967,2,13,9,2225
1967,2,13,10,2530
1967,2,13,11,2743
1967,2,13,12,2743
1967,2,13,13,2469
1967,2,13,14,2012
1967,2,13,15,1524
1967,2,13,16,1128
1967,2,13,17,884
1967,2,13,18,884
1967,2,13,19,1158
1967,2,13,20,1554
1967,2,13,21,2012
1967,2,13,22,2438
1967,2,13,23,2743
1967,2,14,0,2865
1967,2,14,1,2713
1967,2,14,2,2316
1967,2,14,3,1829
1967,2,14,4,1372
1967,2,14,5,1128
1967,2,14,6,975
1967,2,14,7,1067
1967,2,14,8,1402
1967,2,14,9,1798
1967,2,14,10,2225
1967,2,14,11,2499
1967,2,14,12,2682
1967,2,14,13,2591
1967,2,14,14,2225
1967,2,14,15,1798
1967,2,14,16,1372
1967,2,14,17,1036
1967,2,14,18,914
1967,2,14,19,1036
1967,2,14,20,1311
1967,2,14,21,1768
1967,2,14,22,2195
1967,2,14,23,2560
1967,2,15,0,2804
1967,2,15,1,2804
1967,2,15,2,2560
1967,2,15,3,2134
1967,2,15,4,1676
1967,2,15,5,1311
1967,2,15,6,1067
1967,2,15,7,1067
1967,2,15,8,1250
1967,2,15,9,1585
1967,2,15,10,1951
1967,2,15,11,2316
1967,2,15,12,2560
1967,2,15,13,2621
1967,2,15,14,2408
1967,2,15,15,2103
1967,2,15,16,1676
1967,2,15,17,1280
1967,2,15,18,1067
1967,2,15,19,1036
1967,2,15,20,1219
1967,2,15,21,1554
1967,2,15,22,1951
1967,2,15,23,2347
1967,2,16,0,2621
1967,2,16,1,2774
1967,2,16,2,2713
1967,2,16,3,2377
1967,2,16,4,1981
1967,2,16,5,1554
1967,2,16,6,1219
1967,2,16,7,1097
1967,2,16,8,1158
1967,2,16,9,1372
1967,2,16,10,1707
1967,2,16,11,2042
1967,2,16,12,2377
1967,2,16,13,2560
1967,2,16,14,2499
1967,2,16,15,2256
1967,2,16,16,1890
1967,2,16,17,1524
1967,2,16,18,1219
1967,2,16,19,1128
1967,2,16,20,1158
1967,2,16,21,1402
1967,2,16,22,1768
1967,2,16,23,2164
1967,2,17,0,2469
1967,2,17,1,2713
1967,2,17,2,2774
1967,2,17,3,2560
1967,2,17,4,2225
1967,2,17,5,1890
1967,2,17,6,1494
1967,2,17,7,1250
1967,2,17,8,1189
1967,2,17,9,1250
1967,2,17,10,1494
1967,2,17,11,1829
1967,2,17,12,2134
1967,2,17,13,2408
1967,2,17,14,2499
1967,2,17,15,2377
1967,2,17,16,2134
1967,2,17,17,1798
1967,2,17,18,1463
1967,2,17,19,1280
1967,2,17,20,1189
1967,2,17,21,1280
1967,2,17,22,1524
1967,2,17,23,1859
1967,2,18,0,2225
1967,2,18,1,2499
1967,2,18,2,2682
1967,2,18,3,2682
1967,2,18,4,2469
1967,2,18,5,2134
1967,2,18,6,1768
1967,2,18,7,1433
1967,2,18,8,1219
1967,2,18,9,1189
1967,2,18,10,1311
1967,2,18,11,1554
1967,2,18,12,1859
1967,2,18,13,2117
1967,2,18,14,2286
1967,2,18,15,2347
1967,2,18,16,2225
1967,2,18,17,1981
1967,2,18,18,1768
1967,2,18,19,1463
1967,2,18,20,1280
1967,2,18,21,1280
1967,2,18,22,1402
1967,2,18,23,1646
1967,2,19,0,1920
1967,2,19,1,2225
1967,2,19,2,2499
1967,2,19,3,2591
1967,2,19,4,2560
1967,2,19,5,2347
1967,2,19,6,2042
1967,2,19,7,1707
1967,2,19,8,1402
1967,2,19,9,1250
1967,2,19,10,1219
1967,2,19,11,1341
1967,2,19,12,1554
1967,2,19,13,1829
1967,2,19,14,2042
1967,2,19,15,2195
1967,2,19,16,2256
1967,2,19,17,2164
1967,2,19,18,1920
1967,2,19,19,1707
1967,2,19,20,1463
1967,2,19,21,1311
1967,2,19,22,1341
1967,2,19,23,1433
1967,2,20,0,1615
1967,2,20,1,1951
1967,2,20,2,2225
1967,2,20,3,2408
1967,2,20,4,2560
1967,2,20,5,2499
1967,2,20,6,2286
1967,2,20,7,2012
1967,2,20,8,1676
1967,2,20,9,1433
1967,2,20,10,1250
1967,2,20,11,1219
1967,2,20,12,1341
1967,2,20,13,1524
1967,2,20,14,1768
1967,2,20,15,1981
1967,2,20,16,2195
1967,2,20,17,2256
1967,2,20,18,2134
1967,2,20,19,1951
1967,2,20,20,1707
1967,2,20,21,1524
1967,2,20,22,1341
1967,2,20,23,1280
1967,2,21,0,1402
1967,2,21,1,1615
1967,2,21,2,1859
1967,2,21,3,2195
1967,2,21,4,2408
1967,2,21,5,2591
1967,2,21,6,2560
1967,2,21,7,2316
1967,2,21,8,2042
1967,2,21,9,1707
1967,2,21,10,1372
1967,2,21,11,1189
1967,2,21,12,1158
1967,2,21,13,1250
1967,2,21,14,1433
1967,2,21,15,1707
1967,2,21,16,2012
1967,2,21,17,2225
1967,2,21,18,2286
1967,2,21,19,2225
1967,2,21,20,2012
1967,2,21,21,1768
1967,2,21,22,1463
1967,2,21,23,1250
1967,2,22,0,1219
1967,2,22,1,1311
1967,2,22,2,1494
1967,2,22,3,1829
1967,2,22,4,2195
1967,2,22,5,2499
1967,2,22,6,2621
1967,2,22,7,2591
1967,2,22,8,2377
1967,2,22,9,2042
1967,2,22,10,1676
1967,2,22,11,1280
1967,2,22,12,1067
1967,2,22,13,1036
1967,2,22,14,1128
1967,2,22,15,1372
1967,2,22,16,1707
1967,2,22,17,2073
1967,2,22,18,2347
1967,2,22,19,2438
1967,2,22,20,2347
1967,2,22,21,2103
1967,2,22,22,1768
1967,2,22,23,1402
1967,2,23,0,1128
1967,2,23,1,1036
1967,2,23,2,1158
1967,2,23,3,1433
1967,2,23,4,1768
1967,2,23,5,2195
1967,2,23,6,2530
1967,2,23,7,2743
1967,2,23,8,2743
1967,2,23,9,2469
1967,2,23,10,2073
1967,2,23,11,1585
1967,2,23,12,1158
1967,2,23,13,945
1967,2,23,14,884
1967,2,23,15,1006
1967,2,23,16,1372
1967,2,23,17,1768
1967,2,23,18,2195
1967,2,23,19,2530
1967,2,23,20,2621
1967,2,23,21,2499
1967,2,23,22,2195
1967,2,23,23,1737
1967,2,24,0,1311
1967,2,24,1,1006
1967,2,24,2,945
1967,2,24,3,1036
1967,2,24,4,1372
1967,2,24,5,1798
1967,2,24,6,2286
1967,2,24,7,2682
1967,2,24,8,2896
1967,2,24,9,2835
1967,2,24,10,2530
1967,2,24,11,2012
1967,2,24,12,1463
1967,2,24,13,975
1967,2,24,14,732
1967,2,24,15,701
1967,2,24,16,945
1967,2,24,17,1372
1967,2,24,18,1890
1967,2,24,19,2377
1967,2,24,20,2713
1967,2,24,21,2865
1967,2,24,22,2652
1967,2,24,23,2256
1967,2,25,0,1707
1967,2,25,1,1158
1967,2,25,2,884
1967,2,25,3,762
1967,2,25,4,884
1967,2,25,5,1341
1967,2,25,6,1859
1967,2,25,7,2377
1967,2,25,8,2804
1967,2,25,9,2987
1967,2,25,10,2926
1967,2,25,11,2499
1967,2,25,12,1920
1967,2,25,13,1341
1967,2,25,14,792
1967,2,25,15,549
1967,2,25,16,640
1967,2,25,17,945
1967,2,25,18,1494
1967,2,25,19,2073
1967,2,25,20,2591
1967,2,25,21,2957
1967,2,25,22,3078
1967,2,25,23,2774
1967,2,26,0,2256
1967,2,26,1,1615
1967,2,26,2,1006
1967,2,26,3,701
1967,2,26,4,610
1967,2,26,5,853
1967,2,26,6,1311
1967,2,26,7,1890
1967,2,26,8,2469
1967,2,26,9,2896
1967,2,26,10,3109
1967,2,26,11,2926
1967,2,26,12,2438
1967,2,26,13,1798
1967,2,26,14,1097
1967,2,26,15,579
1967,2,26,16,457
1967,2,26,17,549
1967,2,26,18,975
1967,2,26,19,1615
1967,2,26,20,2256
1967,2,26,21,2774
1967,2,26,22,3109
1967,2,26,23,3139
1967,2,27,0,2743
1967,2,27,1,2134
1967,2,27,2,1494
1967,2,27,3,853
1967,2,27,4,518
1967,2,27,5,518
1967,2,27,6,792
1967,2,27,7,1341
1967,2,27,8,1951
1967,2,27,9,2499
1967,2,27,10,2926
1967,2,27,11,3048
1967,2,27,12,2804
1967,2,27,13,2256
1967,2,27,14,1585
1967,2,27,15,914
1967,2,27,16,518
1967,2,27,17,396
1967,2,27,18,610
1967,2,27,19,1128
1967,2,27,20,1798
1967,2,27,21,2408
1967,2,27,22,2957
1967,2,27,23,3231
1967,2,28,0,3200
1967,2,28,1,2713
1967,2,28,2,2103
1967,2,28,3,1402
1967,2,28,4,792
1967,2,28,5,518
1967,2,28,6,549
1967,2,28,7,884
1967,2,28,8,1463
1967,2,28,9,2042